Voltar ao catálogo

DELTA 1 DEB

AtivoUNKNOWN
NORAD 10660·DEBRIS·🇺🇸 United States

Lançado Jul 29, 1976 de Vandenberg Space Force Base

Loading…

Próximas Passagens (próximas 24 horas)

TLE

AtualizadoSource: Space-Track

Época: Sep 14, 2026, 13:00 UTC

1 10660U 76077W   26257.54191273 -.00000192  00000-0 -23161-2 0  9993
2 10660 102.2331 130.7886 0393803 247.0022 232.6279 11.67400990134515

Acompanhe DELTA 1 DEB em tempo real com AllMySat

Download on the App Store